Time,TemperatureF,DewpointF,PressureIn,WindDirection,WindDirectionDegrees,WindSpeedMPH,WindSpeedGustMPH,Humidity,HourlyPrecipIn,Conditions,Clouds,dailyrainin,SoftwareType,DateUTC
2013-09-30 00:01:00,60.3,54.7,29.86,SE,135,0.0,0.0,82,0.00,,,0.00,WeatherDisplay:10.37,2013-09-30 04:01:00,
2013-09-30 00:03:00,60.3,54.7,29.86,SE,135,0.0,0.0,82,0.00,,,0.00,WeatherDisplay:10.37,2013-09-30 04:03:00,
2013-09-30 00:04:00,60.4,54.9,29.86,SE,135,0.0,0.0,82,0.00,,,0.00,WeatherDisplay:10.37,2013-09-30 04:04:00,
2013-09-30 00:09:00,60.4,54.9,29.86,SE,135,0.0,0.0,82,0.00,,,0.00,WeatherDisplay:10.37,2013-09-30 04:09:00,
2013-09-30 00:14:00,60.4,54.9,29.87,SE,135,0.0,0.0,82,0.00,,,0.00,WeatherDisplay:10.37,2013-09-30 04:14:00,
2013-09-30 00:19:00,60.1,54.6,29.86,SE,135,0.0,0.0,82,0.00,,,0.00,WeatherDisplay:10.37,2013-09-30 04:19:00,
2013-09-30 00:24:00,60.1,54.6,29.86,SE,135,0.0,0.0,82,0.00,,,0.00,WeatherDisplay:10.37,2013-09-30 04:24:00,
2013-09-30 00:29:00,60.1,54.6,29.86,SE,135,0.0,0.0,82,0.00,,,0.00,WeatherDisplay:10.37,2013-09-30 04:29:00,
2013-09-30 00:34:00,60.1,54.6,29.86,SE,135,0.0,0.0,82,0.00,,,0.00,WeatherDisplay:10.37,2013-09-30 04:34:00,
2013-09-30 00:39:00,60.3,54.7,29.86,SE,135,0.0,0.0,82,0.00,,,0.00,WeatherDisplay:10.37,2013-09-30 04:39:00,
2013-09-30 00:44:00,60.4,54.9,29.86,SE,135,0.0,0.0,82,0.00,,,0.00,WeatherDisplay:10.37,2013-09-30 04:44:00,
2013-09-30 00:49:00,60.4,54.9,29.86,SE,135,0.0,0.0,82,0.00,,,0.00,WeatherDisplay:10.37,2013-09-30 04:49:00,
2013-09-30 00:54:00,60.3,54.7,29.85,SE,135,0.0,0.0,82,0.00,,,0.00,WeatherDisplay:10.37,2013-09-30 04:54:00,
2013-09-30 00:59:00,60.1,54.6,29.85,SE,135,0.0,0.0,82,0.00,,,0.00,WeatherDisplay:10.37,2013-09-30 04:59:00,
2013-09-30 01:04:00,60.1,54.6,29.85,SE,135,0.0,0.0,82,0.00,,,0.00,WeatherDisplay:10.37,2013-09-30 05:04:00,
2013-09-30 01:09:00,60.1,54.6,29.85,SE,135,0.0,0.0,82,0.00,,,0.00,WeatherDisplay:10.37,2013-09-30 05:09:00,
2013-09-30 01:14:00,60.1,54.9,29.85,SE,135,0.0,0.0,83,0.00,,,0.00,WeatherDisplay:10.37,2013-09-30 05:14:00,
2013-09-30 01:19:00,60.1,54.9,29.85,SE,135,0.0,0.0,83,0.00,,,0.00,WeatherDisplay:10.37,2013-09-30 05:19:00,
2013-09-30 01:24:00,60.1,54.9,29.85,SE,135,0.0,0.0,83,0.00,,,0.00,WeatherDisplay:10.37,2013-09-30 05:24:00,
2013-09-30 01:29:00,60.1,54.9,29.86,SE,135,0.0,0.0,83,0.00,,,0.00,WeatherDisplay:10.37,2013-09-30 05:29:00,
2013-09-30 01:34:00,59.9,54.7,29.85,SE,135,0.0,0.0,83,0.00,,,0.00,WeatherDisplay:10.37,2013-09-30 05:34:00,
2013-09-30 01:39:00,59.7,54.5,29.85,SE,135,0.0,0.0,83,0.00,,,0.00,WeatherDisplay:10.37,2013-09-30 05:39:00,
2013-09-30 01:44:00,59.7,54.9,29.85,SE,135,0.0,0.0,84,0.00,,,0.00,WeatherDisplay:10.37,2013-09-30 05:44:00,
2013-09-30 01:49:00,59.5,54.7,29.85,SE,135,0.0,0.0,84,0.00,,,0.00,WeatherDisplay:10.37,2013-09-30 05:49:00,
2013-09-30 01:54:00,59.5,54.7,29.85,SE,135,0.0,0.0,84,0.00,,,0.00,WeatherDisplay:10.37,2013-09-30 05:54:00,
2013-09-30 01:59:00,59.2,54.3,29.85,SE,135,0.0,0.0,84,0.00,,,0.00,WeatherDisplay:10.37,2013-09-30 05:59:00,
2013-09-30 02:04:00,58.8,54.0,29.85,SE,135,0.0,0.0,84,0.00,,,0.00,WeatherDisplay:10.37,2013-09-30 06:04:00,
2013-09-30 02:09:00,58.5,53.6,29.85,SE,135,0.0,0.0,84,0.00,,,0.00,WeatherDisplay:10.37,2013-09-30 06:09:00,
2013-09-30 02:14:00,58.1,53.6,29.85,SE,135,0.0,0.0,85,0.00,,,0.00,WeatherDisplay:10.37,2013-09-30 06:14:00,
2013-09-30 02:19:00,57.9,53.4,29.85,SE,135,0.0,0.0,85,0.00,,,0.00,WeatherDisplay:10.37,2013-09-30 06:19:00,
2013-09-30 02:24:00,57.7,53.3,29.85,SE,135,0.0,0.0,85,0.00,,,0.00,WeatherDisplay:10.37,2013-09-30 06:24:00,
2013-09-30 02:29:00,57.7,53.3,29.85,SE,135,0.0,0.0,85,0.00,,,0.00,WeatherDisplay:10.37,2013-09-30 06:29:00,
2013-09-30 02:34:00,57.4,53.2,29.85,SE,135,0.0,0.0,86,0.00,,,0.00,WeatherDisplay:10.37,2013-09-30 06:34:00,
2013-09-30 02:39:00,57.4,53.2,29.85,SE,135,0.0,0.0,86,0.00,,,0.00,WeatherDisplay:10.37,2013-09-30 06:39:00,
2013-09-30 02:44:00,57.4,53.2,29.85,SE,135,0.0,0.0,86,0.00,,,0.00,WeatherDisplay:10.37,2013-09-30 06:44:00,
2013-09-30 02:49:00,57.4,53.2,29.85,SE,135,0.0,0.0,86,0.00,,,0.00,WeatherDisplay:10.37,2013-09-30 06:49:00,
2013-09-30 02:54:00,57.2,53.0,29.85,SE,135,0.0,0.0,86,0.00,,,0.00,WeatherDisplay:10.37,2013-09-30 06:54:00,
2013-09-30 02:59:00,57.0,52.9,29.84,SE,135,0.0,0.0,86,0.00,,,0.00,WeatherDisplay:10.37,2013-09-30 06:59:00,
2013-09-30 03:04:00,57.0,53.2,29.83,SE,135,0.0,0.0,87,0.00,,,0.00,WeatherDisplay:10.37,2013-09-30 07:04:00,
2013-09-30 03:09:00,57.0,53.2,29.82,SE,135,0.0,0.0,87,0.00,,,0.00,WeatherDisplay:10.37,2013-09-30 07:09:00,
2013-09-30 03:14:00,57.4,53.5,29.83,SE,135,0.0,0.0,87,0.00,,,0.00,WeatherDisplay:10.37,2013-09-30 07:14:00,
2013-09-30 03:19:00,57.0,53.2,29.82,SE,135,0.0,0.0,87,0.00,,,0.00,WeatherDisplay:10.37,2013-09-30 07:19:00,
2013-09-30 03:24:00,57.0,52.9,29.82,SE,135,0.0,0.0,86,0.00,,,0.00,WeatherDisplay:10.37,2013-09-30 07:24:00,
2013-09-30 03:29:00,57.0,52.9,29.82,SE,135,0.0,0.0,86,0.00,,,0.00,WeatherDisplay:10.37,2013-09-30 07:29:00,
2013-09-30 03:34:00,56.8,52.7,29.82,SE,135,0.0,0.0,86,0.00,,,0.00,WeatherDisplay:10.37,2013-09-30 07:34:00,
2013-09-30 03:39:00,56.8,52.7,29.82,SE,135,0.0,0.0,86,0.00,,,0.00,WeatherDisplay:10.37,2013-09-30 07:39:00,
2013-09-30 03:44:00,56.8,53.0,29.82,SE,135,0.0,0.0,87,0.00,,,0.00,WeatherDisplay:10.37,2013-09-30 07:44:00,
2013-09-30 03:49:00,56.7,52.8,29.83,SE,135,0.0,0.0,87,0.00,,,0.00,WeatherDisplay:10.37,2013-09-30 07:49:00,
2013-09-30 03:54:00,56.7,52.8,29.83,SE,135,0.0,0.0,87,0.00,,,0.00,WeatherDisplay:10.37,2013-09-30 07:54:00,
2013-09-30 03:59:00,56.5,52.7,29.83,SE,135,0.0,0.0,87,0.00,,,0.00,WeatherDisplay:10.37,2013-09-30 07:59:00,
2013-09-30 04:04:00,56.5,52.7,29.83,SE,135,0.0,0.0,87,0.00,,,0.00,WeatherDisplay:10.37,2013-09-30 08:04:00,
2013-09-30 04:09:00,56.3,52.5,29.83,SE,135,0.0,0.0,87,0.00,,,0.00,WeatherDisplay:10.37,2013-09-30 08:09:00,
2013-09-30 04:14:00,56.1,52.3,29.83,SE,135,0.0,0.0,87,0.00,,,0.00,WeatherDisplay:10.37,2013-09-30 08:14:00,
2013-09-30 04:19:00,56.1,52.3,29.83,SE,135,0.0,0.0,87,0.00,,,0.00,WeatherDisplay:10.37,2013-09-30 08:19:00,
2013-09-30 04:24:00,56.1,52.3,29.83,SE,135,0.0,0.0,87,0.00,,,0.00,WeatherDisplay:10.37,2013-09-30 08:24:00,
2013-09-30 04:29:00,56.1,52.3,29.83,SE,135,0.0,0.0,87,0.00,,,0.00,WeatherDisplay:10.37,2013-09-30 08:29:00,
2013-09-30 04:34:00,56.1,52.3,29.83,SE,135,0.0,0.0,87,0.00,,,0.00,WeatherDisplay:10.37,2013-09-30 08:34:00,
2013-09-30 04:39:00,56.1,52.3,29.83,SE,135,0.0,0.0,87,0.00,,,0.00,WeatherDisplay:10.37,2013-09-30 08:39:00,
2013-09-30 04:44:00,56.1,52.3,29.84,SE,135,0.0,0.0,87,0.00,,,0.00,WeatherDisplay:10.37,2013-09-30 08:44:00,
2013-09-30 04:49:00,56.1,52.3,29.83,SE,135,0.0,0.0,87,0.00,,,0.00,WeatherDisplay:10.37,2013-09-30 08:49:00,
2013-09-30 04:54:00,55.9,52.1,29.84,SE,135,0.0,0.0,87,0.00,,,0.00,WeatherDisplay:10.37,2013-09-30 08:54:00,
2013-09-30 04:59:00,55.9,52.1,29.84,SE,135,0.0,0.0,87,0.00,,,0.00,WeatherDisplay:10.37,2013-09-30 08:59:00,
2013-09-30 05:04:00,55.9,52.1,29.83,SE,135,0.0,0.0,87,0.00,,,0.00,WeatherDisplay:10.37,2013-09-30 09:04:00,
2013-09-30 05:09:00,55.8,51.9,29.84,SE,135,0.0,0.0,87,0.00,,,0.00,WeatherDisplay:10.37,2013-09-30 09:09:00,
2013-09-30 05:14:00,55.8,51.9,29.84,SE,135,0.0,0.0,87,0.00,,,0.00,WeatherDisplay:10.37,2013-09-30 09:14:00,
2013-09-30 05:19:00,55.8,51.9,29.85,SE,135,0.0,0.0,87,0.00,,,0.00,WeatherDisplay:10.37,2013-09-30 09:19:00,
2013-09-30 05:24:00,55.8,51.9,29.85,SE,135,0.0,0.0,87,0.00,,,0.00,WeatherDisplay:10.37,2013-09-30 09:24:00,
2013-09-30 05:29:00,55.8,51.9,29.84,SE,135,0.0,0.0,87,0.00,,,0.00,WeatherDisplay:10.37,2013-09-30 09:29:00,
2013-09-30 05:34:00,55.6,51.8,29.85,SE,135,0.0,0.0,87,0.00,,,0.00,WeatherDisplay:10.37,2013-09-30 09:34:00,
2013-09-30 05:39:00,55.6,51.8,29.85,SE,135,0.0,0.0,87,0.00,,,0.00,WeatherDisplay:10.37,2013-09-30 09:39:00,
2013-09-30 05:44:00,55.2,51.4,29.85,SE,135,0.0,0.0,87,0.00,,,0.00,WeatherDisplay:10.37,2013-09-30 09:44:00,
2013-09-30 05:49:00,55.2,51.4,29.85,SE,135,0.0,0.0,87,0.00,,,0.00,WeatherDisplay:10.37,2013-09-30 09:49:00,
2013-09-30 05:54:00,55.0,51.2,29.85,SE,135,0.0,0.0,87,0.00,,,0.00,WeatherDisplay:10.37,2013-09-30 09:54:00,
2013-09-30 05:59:00,55.0,50.9,29.85,SE,135,0.0,0.0,86,0.00,,,0.00,WeatherDisplay:10.37,2013-09-30 09:59:00,
2013-09-30 06:04:00,55.0,51.2,29.85,SE,135,0.0,0.0,87,0.00,,,0.00,WeatherDisplay:10.37,2013-09-30 10:04:00,
2013-09-30 06:09:00,55.0,51.2,29.85,SE,135,0.0,0.0,87,0.00,,,0.00,WeatherDisplay:10.37,2013-09-30 10:09:00,
2013-09-30 06:14:00,55.0,51.2,29.85,SE,135,0.0,0.0,87,0.00,,,0.00,WeatherDisplay:10.37,2013-09-30 10:14:00,
2013-09-30 06:19:00,54.9,51.1,29.86,SE,135,0.0,0.0,87,0.00,,,0.00,WeatherDisplay:10.37,2013-09-30 10:19:00,
2013-09-30 06:24:00,54.9,51.1,29.86,SE,135,0.0,0.0,87,0.00,,,0.00,WeatherDisplay:10.37,2013-09-30 10:24:00,
2013-09-30 06:29:00,54.9,51.1,29.86,SE,135,0.0,0.0,87,0.00,,,0.00,WeatherDisplay:10.37,2013-09-30 10:29:00,
2013-09-30 06:34:00,54.9,51.1,29.86,SE,135,0.0,0.0,87,0.00,,,0.00,WeatherDisplay:10.37,2013-09-30 10:34:00,
2013-09-30 06:39:00,54.9,51.1,29.86,SE,135,0.0,0.0,87,0.00,,,0.00,WeatherDisplay:10.37,2013-09-30 10:39:00,
2013-09-30 06:44:00,54.7,50.9,29.86,SE,135,0.0,0.0,87,0.00,,,0.00,WeatherDisplay:10.37,2013-09-30 10:44:00,
2013-09-30 06:49:00,54.7,50.9,29.86,SE,135,0.0,0.0,87,0.00,,,0.00,WeatherDisplay:10.37,2013-09-30 10:49:00,
2013-09-30 06:54:00,54.5,50.7,29.86,SE,135,0.0,0.0,87,0.00,,,0.00,WeatherDisplay:10.37,2013-09-30 10:54:00,
2013-09-30 06:59:00,54.3,50.5,29.86,SE,135,0.0,0.0,87,0.00,,,0.00,WeatherDisplay:10.37,2013-09-30 10:59:00,
2013-09-30 07:04:00,54.3,50.5,29.86,SE,135,0.0,0.0,87,0.00,,,0.00,WeatherDisplay:10.37,2013-09-30 11:04:00,
2013-09-30 07:09:00,54.3,50.5,29.87,SE,135,0.0,0.0,87,0.00,,,0.00,WeatherDisplay:10.37,2013-09-30 11:09:00,
2013-09-30 07:14:00,54.1,50.4,29.87,SE,135,0.0,0.0,87,0.00,,,0.00,WeatherDisplay:10.37,2013-09-30 11:14:00,
2013-09-30 07:19:00,54.1,50.4,29.87,SE,135,0.0,0.0,87,0.00,,,0.00,WeatherDisplay:10.37,2013-09-30 11:19:00,
2013-09-30 07:24:00,54.1,50.4,29.87,SE,135,0.0,0.0,87,0.00,,,0.00,WeatherDisplay:10.37,2013-09-30 11:24:00,
2013-09-30 07:29:00,54.0,50.2,29.87,SE,135,0.0,0.0,87,0.00,,,0.00,WeatherDisplay:10.37,2013-09-30 11:29:00,
2013-09-30 07:34:00,53.8,50.0,29.88,SE,135,0.0,0.0,87,0.00,,,0.00,WeatherDisplay:10.37,2013-09-30 11:34:00,
2013-09-30 07:39:00,53.8,50.0,29.88,SE,135,0.0,0.0,87,0.00,,,0.00,WeatherDisplay:10.37,2013-09-30 11:39:00,
2013-09-30 07:44:00,53.8,50.0,29.88,SE,135,0.0,0.0,87,0.00,,,0.00,WeatherDisplay:10.37,2013-09-30 11:44:00,
2013-09-30 07:49:00,53.8,50.3,29.88,SE,135,0.0,0.0,88,0.00,,,0.00,WeatherDisplay:10.37,2013-09-30 11:49:00,
2013-09-30 07:54:00,53.8,50.3,29.88,SE,135,0.0,0.0,88,0.00,,,0.00,WeatherDisplay:10.37,2013-09-30 11:54:00,
2013-09-30 07:59:00,54.0,50.5,29.88,SE,135,0.0,0.0,88,0.00,,,0.00,WeatherDisplay:10.37,2013-09-30 11:59:00,
2013-09-30 08:04:00,54.1,50.7,29.88,SE,135,0.0,0.0,88,0.00,,,0.00,WeatherDisplay:10.37,2013-09-30 12:04:00,
2013-09-30 08:09:00,54.1,50.7,29.88,SE,135,0.0,0.0,88,0.00,,,0.00,WeatherDisplay:10.37,2013-09-30 12:09:00,
2013-09-30 08:14:00,54.3,50.8,29.88,SE,135,0.0,0.0,88,0.00,,,0.00,WeatherDisplay:10.37,2013-09-30 12:14:00,
2013-09-30 08:19:00,54.3,50.8,29.89,SE,135,0.0,0.0,88,0.00,,,0.00,WeatherDisplay:10.37,2013-09-30 12:19:00,
2013-09-30 08:24:00,54.4,50.9,29.88,SE,135,0.0,0.0,88,0.00,,,0.00,WeatherDisplay:10.37,2013-09-30 12:24:00,
2013-09-30 08:29:00,54.6,51.1,29.88,SE,135,0.0,0.0,88,0.00,,,0.00,WeatherDisplay:10.37,2013-09-30 12:29:00,
2013-09-30 08:34:00,54.7,51.2,29.89,SE,135,0.0,0.0,88,0.00,,,0.00,WeatherDisplay:10.37,2013-09-30 12:34:00,
2013-09-30 08:39:00,54.9,51.4,29.89,SE,135,0.0,0.0,88,0.00,,,0.00,WeatherDisplay:10.37,2013-09-30 12:39:00,
2013-09-30 08:44:00,55.0,51.9,29.89,SE,135,0.0,0.0,89,0.00,,,0.00,WeatherDisplay:10.37,2013-09-30 12:44:00,
2013-09-30 08:49:00,55.2,52.0,29.88,SE,135,0.0,0.0,89,0.00,,,0.00,WeatherDisplay:10.37,2013-09-30 12:49:00,
2013-09-30 08:54:00,55.2,52.0,29.88,SE,135,0.0,0.0,89,0.00,,,0.00,WeatherDisplay:10.37,2013-09-30 12:54:00,
2013-09-30 08:59:00,55.6,52.4,29.88,SE,135,0.0,0.0,89,0.00,,,0.00,WeatherDisplay:10.37,2013-09-30 12:59:00,
2013-09-30 09:04:00,55.8,52.6,29.89,SE,135,0.0,0.0,89,0.00,,,0.00,WeatherDisplay:10.37,2013-09-30 13:04:00,
2013-09-30 09:09:00,56.0,52.8,29.89,SE,135,0.0,0.0,89,0.00,,,0.00,WeatherDisplay:10.37,2013-09-30 13:09:00,
2013-09-30 09:14:00,56.3,53.1,29.89,SE,135,0.0,0.0,89,0.00,,,0.00,WeatherDisplay:10.37,2013-09-30 13:14:00,
2013-09-30 09:19:00,56.3,53.1,29.89,SE,135,0.0,0.0,89,0.00,,,0.00,WeatherDisplay:10.37,2013-09-30 13:19:00,
2013-09-30 09:24:00,56.5,53.3,29.89,SE,135,0.0,0.0,89,0.00,,,0.00,WeatherDisplay:10.37,2013-09-30 13:24:00,
2013-09-30 09:29:00,56.5,53.3,29.89,SE,135,0.0,0.0,89,0.00,,,0.00,WeatherDisplay:10.37,2013-09-30 13:29:00,
2013-09-30 09:34:00,56.5,53.3,29.89,SE,135,0.0,0.0,89,0.00,,,0.00,WeatherDisplay:10.37,2013-09-30 13:34:00,
2013-09-30 09:39:00,56.8,53.3,29.89,SE,135,0.0,0.0,88,0.00,,,0.00,WeatherDisplay:10.37,2013-09-30 13:39:00,
2013-09-30 09:44:00,56.8,53.6,29.89,SE,135,0.0,0.0,89,0.00,,,0.00,WeatherDisplay:10.37,2013-09-30 13:44:00,
2013-09-30 09:49:00,57.0,53.8,29.89,SE,135,0.0,0.0,89,0.00,,,0.00,WeatherDisplay:10.37,2013-09-30 13:49:00,
2013-09-30 09:55:00,57.0,53.8,29.89,SE,135,0.0,0.0,89,0.00,,,0.00,WeatherDisplay:10.37,2013-09-30 13:55:00,
2013-09-30 10:00:00,57.4,54.2,29.89,SSE,158,0.0,0.0,89,0.00,,,0.00,WeatherDisplay:10.37,2013-09-30 14:00:00,
2013-09-30 10:05:00,57.6,54.3,29.89,SSE,158,0.0,0.0,89,0.00,,,0.00,WeatherDisplay:10.37,2013-09-30 14:05:00,
2013-09-30 10:10:00,57.7,54.5,29.89,SSE,158,0.0,0.0,89,0.00,,,0.00,WeatherDisplay:10.37,2013-09-30 14:10:00,
2013-09-30 10:15:00,57.9,54.7,29.89,SSE,158,0.0,0.0,89,0.00,,,0.00,WeatherDisplay:10.37,2013-09-30 14:15:00,
2013-09-30 10:20:00,58.3,55.1,29.89,SSE,158,0.0,0.0,89,0.00,,,0.00,WeatherDisplay:10.37,2013-09-30 14:20:00,
2013-09-30 10:25:00,58.6,55.4,29.89,South,180,0.0,0.0,89,0.00,,,0.00,WeatherDisplay:10.37,2013-09-30 14:25:00,
2013-09-30 10:30:00,58.8,55.3,29.89,South,180,0.0,0.0,88,0.00,,,0.00,WeatherDisplay:10.37,2013-09-30 14:30:00,
2013-09-30 10:35:00,59.2,55.6,29.89,South,180,0.0,0.0,88,0.00,,,0.00,WeatherDisplay:10.37,2013-09-30 14:35:00,
2013-09-30 10:40:00,59.5,56.0,29.89,South,180,0.0,0.0,88,0.00,,,0.00,WeatherDisplay:10.37,2013-09-30 14:40:00,
2013-09-30 10:45:00,60.1,56.5,29.89,South,180,0.0,0.0,88,0.00,,,0.00,WeatherDisplay:10.37,2013-09-30 14:45:00,
2013-09-30 10:50:00,60.4,56.6,29.89,South,180,0.0,0.0,87,0.00,,,0.00,WeatherDisplay:10.37,2013-09-30 14:50:00,
2013-09-30 10:55:00,60.6,56.4,29.89,South,180,0.0,0.0,86,0.00,,,0.00,WeatherDisplay:10.37,2013-09-30 14:55:00,
2013-09-30 11:00:00,61.3,57.1,29.89,South,180,0.0,0.0,86,0.00,,,0.00,WeatherDisplay:10.37,2013-09-30 15:00:00,
2013-09-30 11:05:00,61.9,57.3,29.89,South,180,0.0,0.0,85,0.00,,,0.00,WeatherDisplay:10.37,2013-09-30 15:05:00,
2013-09-30 11:10:00,62.6,58.0,29.89,South,180,0.0,0.0,85,0.00,,,0.00,WeatherDisplay:10.37,2013-09-30 15:10:00,
2013-09-30 11:15:00,63.3,57.7,29.88,South,180,0.0,0.0,82,0.00,,,0.00,WeatherDisplay:10.37,2013-09-30 15:15:00,
2013-09-30 11:20:00,64.2,58.3,29.88,South,180,0.0,0.0,81,0.00,,,0.00,WeatherDisplay:10.37,2013-09-30 15:20:00,
2013-09-30 11:29:00,65.8,59.5,29.88,South,180,0.0,0.0,80,0.00,,,0.00,WeatherDisplay:10.37,2013-09-30 15:29:00,
2013-09-30 11:34:00,66.4,58.9,29.87,SE,135,0.0,0.0,77,0.00,,,0.00,WeatherDisplay:10.37,2013-09-30 15:34:00,
2013-09-30 11:39:00,66.9,58.7,29.88,South,180,0.0,0.0,75,0.00,,,0.00,WeatherDisplay:10.37,2013-09-30 15:39:00,
2013-09-30 11:44:00,68.2,60.0,29.88,South,180,0.0,0.0,75,0.00,,,0.00,WeatherDisplay:10.37,2013-09-30 15:44:00,
2013-09-30 11:49:00,69.1,60.4,29.87,South,180,0.0,0.0,74,0.00,,,0.00,WeatherDisplay:10.37,2013-09-30 15:49:00,
2013-09-30 11:54:00,70.2,61.5,29.88,SSE,158,0.0,0.0,74,0.00,,,0.00,WeatherDisplay:10.37,2013-09-30 15:54:00,
2013-09-30 11:59:00,70.9,61.4,29.88,SSE,158,0.0,0.0,72,0.00,,,0.00,WeatherDisplay:10.37,2013-09-30 15:59:00,
2013-09-30 12:04:00,71.2,61.4,29.87,South,180,0.0,0.0,71,0.00,,,0.00,WeatherDisplay:10.37,2013-09-30 16:04:00,
2013-09-30 12:09:00,71.8,61.1,29.87,SSE,158,0.0,0.0,69,0.00,,,0.00,WeatherDisplay:10.37,2013-09-30 16:09:00,
2013-09-30 12:14:00,72.3,61.6,29.87,SW,225,0.0,0.0,69,0.00,,,0.00,WeatherDisplay:10.37,2013-09-30 16:14:00,
2013-09-30 12:19:00,73.0,61.9,29.87,South,180,0.0,0.0,68,0.00,,,0.00,WeatherDisplay:10.37,2013-09-30 16:19:00,
2013-09-30 12:24:00,73.2,62.0,29.87,South,180,0.0,0.0,68,0.00,,,0.00,WeatherDisplay:10.37,2013-09-30 16:24:00,
2013-09-30 12:29:00,73.0,61.4,29.86,SSE,158,0.0,0.0,67,0.00,,,0.00,WeatherDisplay:10.37,2013-09-30 16:29:00,
2013-09-30 12:34:00,72.1,61.0,29.87,SSE,158,0.0,0.0,68,0.00,,,0.00,WeatherDisplay:10.37,2013-09-30 16:34:00,
2013-09-30 12:39:00,70.9,59.8,29.87,SSE,158,0.0,0.0,68,0.00,,,0.00,WeatherDisplay:10.37,2013-09-30 16:39:00,
2013-09-30 12:44:00,70.3,59.7,29.86,SSE,158,0.0,0.0,69,0.00,,,0.00,WeatherDisplay:10.37,2013-09-30 16:44:00,
2013-09-30 12:49:00,70.9,60.2,29.87,SE,135,0.0,0.0,69,0.00,,,0.00,WeatherDisplay:10.37,2013-09-30 16:49:00,
2013-09-30 12:54:00,71.8,60.2,29.86,SE,135,0.0,0.0,67,0.00,,,0.00,WeatherDisplay:10.37,2013-09-30 16:54:00,
2013-09-30 12:59:00,72.3,60.3,29.86,South,180,0.0,0.0,66,0.00,,,0.00,WeatherDisplay:10.37,2013-09-30 16:59:00,
2013-09-30 13:04:00,72.9,60.4,29.86,SSW,202,0.0,0.0,65,0.00,,,0.00,WeatherDisplay:10.37,2013-09-30 17:04:00,
2013-09-30 13:09:00,73.8,61.3,29.86,South,180,0.0,0.0,65,0.00,,,0.00,WeatherDisplay:10.37,2013-09-30 17:09:00,
2013-09-30 13:14:00,75.0,62.0,29.86,SSE,158,0.0,0.0,64,0.00,,,0.00,WeatherDisplay:10.37,2013-09-30 17:14:00,
2013-09-30 13:19:00,75.9,62.4,29.86,South,180,0.0,0.0,63,0.00,,,0.00,WeatherDisplay:10.37,2013-09-30 17:19:00,
2013-09-30 13:24:00,77.2,62.7,29.86,SSE,158,0.0,0.0,61,0.00,,,0.00,WeatherDisplay:10.37,2013-09-30 17:24:00,
2013-09-30 13:29:00,77.4,61.9,29.86,SSW,202,0.0,0.0,59,0.00,,,0.00,WeatherDisplay:10.37,2013-09-30 17:29:00,
2013-09-30 13:34:00,76.8,61.4,29.85,SW,225,0.0,0.0,59,0.00,,,0.00,WeatherDisplay:10.37,2013-09-30 17:34:00,
2013-09-30 13:39:00,75.7,59.9,29.86,SSE,158,0.0,0.0,58,0.00,,,0.00,WeatherDisplay:10.37,2013-09-30 17:39:00,
2013-09-30 13:44:00,74.5,58.7,29.85,SSE,158,0.0,0.0,58,0.00,,,0.00,WeatherDisplay:10.37,2013-09-30 17:44:00,
2013-09-30 13:49:00,73.8,59.0,29.85,SSE,158,0.0,0.0,60,0.00,,,0.00,WeatherDisplay:10.37,2013-09-30 17:49:00,
2013-09-30 13:54:00,73.2,59.0,29.85,SSW,202,0.0,0.0,61,0.00,,,0.00,WeatherDisplay:10.37,2013-09-30 17:54:00,
2013-09-30 13:59:00,72.3,58.6,29.84,SSW,202,0.0,0.0,62,0.00,,,0.00,WeatherDisplay:10.37,2013-09-30 17:59:00,
2013-09-30 14:04:00,71.8,58.1,29.84,SSW,202,0.0,0.0,62,0.00,,,0.00,WeatherDisplay:10.37,2013-09-30 18:04:00,
2013-09-30 14:09:00,70.9,57.7,29.84,SSW,202,0.0,0.0,63,0.00,,,0.00,WeatherDisplay:10.37,2013-09-30 18:09:00,
2013-09-30 14:14:00,70.5,57.8,29.84,SSW,202,0.0,0.0,64,0.00,,,0.00,WeatherDisplay:10.37,2013-09-30 18:14:00,
2013-09-30 14:19:00,70.3,58.0,29.83,SSW,202,0.0,0.0,65,0.00,,,0.00,WeatherDisplay:10.37,2013-09-30 18:19:00,
2013-09-30 14:24:00,70.2,57.8,29.84,South,180,0.0,0.0,65,0.00,,,0.00,WeatherDisplay:10.37,2013-09-30 18:24:00,
2013-09-30 14:29:00,69.8,57.5,29.83,SSW,202,0.0,0.0,65,0.00,,,0.00,WeatherDisplay:10.37,2013-09-30 18:29:00,
2013-09-30 14:34:00,69.6,57.8,29.84,South,180,0.0,0.0,66,0.00,,,0.00,WeatherDisplay:10.37,2013-09-30 18:34:00,
2013-09-30 14:39:00,69.4,57.2,29.84,South,180,0.0,0.0,65,0.00,,,0.00,WeatherDisplay:10.37,2013-09-30 18:39:00,
2013-09-30 14:44:00,69.6,57.8,29.84,SSW,202,0.0,0.0,66,0.00,,,0.00,WeatherDisplay:10.37,2013-09-30 18:44:00,
2013-09-30 14:49:00,70.0,58.1,29.83,SSW,202,0.0,0.0,66,0.00,,,0.00,WeatherDisplay:10.37,2013-09-30 18:49:00,
2013-09-30 14:54:00,70.5,58.1,29.83,South,184,0.0,0.0,65,0.00,,,0.00,WeatherDisplay:10.37,2013-09-30 18:54:00,
2013-09-30 14:59:00,71.8,58.9,29.82,SSE,161,0.0,0.0,64,0.00,,,0.00,WeatherDisplay:10.37,2013-09-30 18:59:00,
2013-09-30 15:04:00,73.0,58.3,29.82,South,169,0.0,0.0,60,0.00,,,0.00,WeatherDisplay:10.37,2013-09-30 19:04:00,
2013-09-30 15:09:00,73.2,58.5,29.82,South,175,0.0,0.0,60,0.00,,,0.00,WeatherDisplay:10.37,2013-09-30 19:09:00,
2013-09-30 15:14:00,72.7,57.5,29.82,SSE,164,0.0,0.0,59,0.00,,,0.00,WeatherDisplay:10.37,2013-09-30 19:14:00,
2013-09-30 15:19:00,72.1,57.4,29.82,SSE,158,0.0,0.0,60,0.00,,,0.00,WeatherDisplay:10.37,2013-09-30 19:19:00,
2013-09-30 15:24:00,71.4,57.3,29.82,SSE,160,0.0,0.0,61,0.00,,,0.00,WeatherDisplay:10.37,2013-09-30 19:24:00,
2013-09-30 15:29:00,71.4,58.2,29.82,South,170,0.0,0.0,63,0.00,,,0.00,WeatherDisplay:10.37,2013-09-30 19:29:00,
2013-09-30 15:34:00,71.9,58.6,29.82,South,188,0.0,0.0,63,0.00,,,0.00,WeatherDisplay:10.37,2013-09-30 19:34:00,
2013-09-30 15:39:00,72.6,59.3,29.82,South,189,0.0,0.0,63,0.00,,,0.00,WeatherDisplay:10.37,2013-09-30 19:39:00,
2013-09-30 15:44:00,73.2,59.4,29.81,South,183,0.0,0.0,62,0.00,,,0.00,WeatherDisplay:10.37,2013-09-30 19:44:00,
2013-09-30 15:49:00,73.2,59.4,29.82,SSW,196,0.0,0.0,62,0.00,,,0.00,WeatherDisplay:10.37,2013-09-30 19:49:00,
2013-09-30 15:54:00,73.5,59.7,29.82,SSW,209,0.0,0.0,62,0.00,,,0.00,WeatherDisplay:10.37,2013-09-30 19:54:00,
2013-09-30 15:59:00,73.5,60.2,29.81,South,191,0.0,0.0,63,0.00,,,0.00,WeatherDisplay:10.37,2013-09-30 19:59:00,
2013-09-30 16:04:00,73.6,59.8,29.82,South,173,0.0,0.0,62,0.00,,,0.00,WeatherDisplay:10.37,2013-09-30 20:04:00,
2013-09-30 16:09:00,73.6,59.3,29.81,South,190,0.0,0.0,61,0.00,,,0.00,WeatherDisplay:10.37,2013-09-30 20:09:00,
2013-09-30 16:14:00,73.2,59.0,29.81,SSW,195,0.0,0.0,61,0.00,,,0.00,WeatherDisplay:10.37,2013-09-30 20:14:00,
2013-09-30 16:19:00,72.7,59.0,29.82,SSW,194,0.0,0.0,62,0.00,,,0.00,WeatherDisplay:10.37,2013-09-30 20:19:00,
2013-09-30 16:24:00,72.2,58.5,29.81,SSW,199,0.0,0.0,62,0.00,,,0.00,WeatherDisplay:10.37,2013-09-30 20:24:00,
2013-09-30 16:29:00,71.7,58.4,29.81,South,173,0.0,0.0,63,0.00,,,0.00,WeatherDisplay:10.37,2013-09-30 20:29:00,
2013-09-30 16:34:00,71.0,58.2,29.82,South,173,0.0,0.0,64,0.00,,,0.00,WeatherDisplay:10.37,2013-09-30 20:34:00,
2013-09-30 16:39:00,70.5,58.1,29.82,South,186,0.0,0.0,65,0.00,,,0.00,WeatherDisplay:10.37,2013-09-30 20:39:00,
2013-09-30 16:44:00,69.9,58.0,29.82,South,177,0.0,0.0,66,0.00,,,0.00,WeatherDisplay:10.37,2013-09-30 20:44:00,
2013-09-30 16:49:00,69.4,58.0,29.82,South,174,0.0,0.0,67,0.00,,,0.00,WeatherDisplay:10.37,2013-09-30 20:49:00,
2013-09-30 16:54:00,69.1,58.1,29.81,South,174,0.0,0.0,68,0.00,,,0.00,WeatherDisplay:10.37,2013-09-30 20:54:00,
2013-09-30 16:59:00,69.1,58.1,29.81,South,186,0.0,0.0,68,0.00,,,0.00,WeatherDisplay:10.37,2013-09-30 20:59:00,
2013-09-30 17:04:00,68.9,58.3,29.81,South,189,0.0,0.0,69,0.00,,,0.00,WeatherDisplay:10.37,2013-09-30 21:04:00,
2013-09-30 17:09:00,68.8,58.2,29.81,South,180,0.0,0.0,69,0.00,,,0.00,WeatherDisplay:10.37,2013-09-30 21:09:00,
2013-09-30 17:14:00,68.8,58.6,29.81,South,187,0.0,0.0,70,0.00,,,0.00,WeatherDisplay:10.37,2013-09-30 21:14:00,
2013-09-30 17:19:00,68.7,58.1,29.81,South,186,0.0,0.0,69,0.00,,,0.00,WeatherDisplay:10.37,2013-09-30 21:19:00,
2013-09-30 17:24:00,68.5,58.0,29.81,South,184,0.0,0.0,69,0.00,,,0.00,WeatherDisplay:10.37,2013-09-30 21:24:00,
2013-09-30 17:29:00,68.2,57.6,29.82,SSE,158,0.0,0.0,69,0.00,,,0.00,WeatherDisplay:10.37,2013-09-30 21:29:00,
2013-09-30 17:34:00,67.8,57.3,29.82,SSE,158,0.0,0.0,69,0.00,,,0.00,WeatherDisplay:10.37,2013-09-30 21:34:00,
2013-09-30 17:39:00,67.6,57.9,29.82,South,180,0.0,0.0,71,0.00,,,0.00,WeatherDisplay:10.37,2013-09-30 21:39:00,
2013-09-30 17:44:00,67.1,57.4,29.82,South,180,0.0,0.0,71,0.00,,,0.00,WeatherDisplay:10.37,2013-09-30 21:44:00,
2013-09-30 17:49:00,66.9,57.2,29.82,South,180,0.0,0.0,71,0.00,,,0.00,WeatherDisplay:10.37,2013-09-30 21:49:00,
2013-09-30 17:54:00,66.7,57.0,29.82,South,180,0.0,0.0,71,0.00,,,0.00,WeatherDisplay:10.37,2013-09-30 21:54:00,
2013-09-30 17:59:00,66.4,56.7,29.82,South,180,0.0,0.0,71,0.00,,,0.00,WeatherDisplay:10.37,2013-09-30 21:59:00,
2013-09-30 18:04:00,66.0,56.7,29.82,South,180,0.0,0.0,72,0.00,,,0.00,WeatherDisplay:10.37,2013-09-30 22:04:00,
2013-09-30 18:09:00,65.8,56.6,29.83,South,180,0.0,0.0,72,0.00,,,0.00,WeatherDisplay:10.37,2013-09-30 22:09:00,
2013-09-30 18:14:00,65.5,56.2,29.82,South,180,0.0,0.0,72,0.00,,,0.00,WeatherDisplay:10.37,2013-09-30 22:14:00,
2013-09-30 18:19:00,65.3,56.4,29.83,South,180,0.0,0.0,73,0.00,,,0.00,WeatherDisplay:10.37,2013-09-30 22:19:00,
2013-09-30 18:24:00,65.1,56.2,29.83,South,180,0.0,0.0,73,0.00,,,0.00,WeatherDisplay:10.37,2013-09-30 22:24:00,
2013-09-30 18:29:00,64.9,56.5,29.83,South,180,0.0,0.0,74,0.00,,,0.00,WeatherDisplay:10.37,2013-09-30 22:29:00,
2013-09-30 18:34:00,64.8,55.9,29.83,South,180,0.0,0.0,73,0.00,,,0.00,WeatherDisplay:10.37,2013-09-30 22:34:00,
2013-09-30 18:39:00,64.6,56.1,29.83,South,180,0.0,0.0,74,0.00,,,0.00,WeatherDisplay:10.37,2013-09-30 22:39:00,
2013-09-30 18:44:00,64.6,56.1,29.83,South,180,0.0,0.0,74,0.00,,,0.00,WeatherDisplay:10.37,2013-09-30 22:44:00,
2013-09-30 18:49:00,64.6,56.1,29.83,South,180,0.0,0.0,74,0.00,,,0.00,WeatherDisplay:10.37,2013-09-30 22:49:00,
2013-09-30 18:54:00,64.2,56.1,29.83,South,180,0.0,0.0,75,0.00,,,0.00,WeatherDisplay:10.37,2013-09-30 22:54:00,
2013-09-30 18:59:00,64.2,56.1,29.83,South,180,0.0,0.0,75,0.00,,,0.00,WeatherDisplay:10.37,2013-09-30 22:59:00,
2013-09-30 19:04:00,64.2,56.1,29.83,South,180,0.0,0.0,75,0.00,,,0.00,WeatherDisplay:10.37,2013-09-30 23:04:00,
2013-09-30 19:09:00,64.2,56.5,29.83,South,180,0.0,0.0,76,0.00,,,0.00,WeatherDisplay:10.37,2013-09-30 23:09:00,
2013-09-30 19:14:00,64.0,56.3,29.83,South,180,0.0,0.0,76,0.00,,,0.00,WeatherDisplay:10.37,2013-09-30 23:14:00,
2013-09-30 19:19:00,64.0,56.3,29.83,South,180,0.0,0.0,76,0.00,,,0.00,WeatherDisplay:10.37,2013-09-30 23:19:00,
2013-09-30 19:24:00,63.9,56.1,29.84,South,180,0.0,0.0,76,0.00,,,0.00,WeatherDisplay:10.37,2013-09-30 23:24:00,
2013-09-30 19:29:00,63.7,56.3,29.84,South,180,0.0,0.0,77,0.00,,,0.00,WeatherDisplay:10.37,2013-09-30 23:29:00,
2013-09-30 19:34:00,63.7,56.3,29.84,South,180,0.0,0.0,77,0.00,,,0.00,WeatherDisplay:10.37,2013-09-30 23:34:00,
2013-09-30 19:39:00,63.5,56.2,29.84,South,180,0.0,0.0,77,0.00,,,0.00,WeatherDisplay:10.37,2013-09-30 23:39:00,
2013-09-30 19:44:00,63.5,56.5,29.84,South,180,0.0,0.0,78,0.00,,,0.00,WeatherDisplay:10.37,2013-09-30 23:44:00,
2013-09-30 19:49:00,63.3,56.3,29.84,South,180,0.0,0.0,78,0.00,,,0.00,WeatherDisplay:10.37,2013-09-30 23:49:00,
2013-09-30 19:54:00,63.2,56.2,29.85,South,180,0.0,0.0,78,0.00,,,0.00,WeatherDisplay:10.37,2013-09-30 23:54:00,
2013-09-30 19:59:00,63.1,56.2,29.85,South,180,0.0,0.0,78,0.00,,,0.00,WeatherDisplay:10.37,2013-09-30 23:59:00,
2013-09-30 20:04:00,63.0,56.3,29.85,South,180,0.0,0.0,79,0.00,,,0.00,WeatherDisplay:10.37,2013-10-01 00:04:00,
2013-09-30 20:09:00,63.0,56.3,29.85,South,180,0.0,0.0,79,0.00,,,0.00,WeatherDisplay:10.37,2013-10-01 00:09:00,
2013-09-30 20:14:00,62.8,56.2,29.85,South,180,0.0,0.0,79,0.00,,,0.00,WeatherDisplay:10.37,2013-10-01 00:14:00,
2013-09-30 20:19:00,62.8,56.2,29.85,South,180,0.0,0.0,79,0.00,,,0.00,WeatherDisplay:10.37,2013-10-01 00:19:00,
2013-09-30 20:24:00,62.6,56.0,29.85,South,180,0.0,0.0,79,0.00,,,0.00,WeatherDisplay:10.37,2013-10-01 00:24:00,
2013-09-30 20:29:00,62.4,56.2,29.85,South,180,0.0,0.0,80,0.00,,,0.00,WeatherDisplay:10.37,2013-10-01 00:29:00,
2013-09-30 20:34:00,62.4,56.2,29.86,South,180,0.0,0.0,80,0.00,,,0.00,WeatherDisplay:10.37,2013-10-01 00:34:00,
2013-09-30 20:39:00,62.1,55.9,29.86,South,180,0.0,0.0,80,0.00,,,0.00,WeatherDisplay:10.37,2013-10-01 00:39:00,
2013-09-30 20:44:00,61.9,56.0,29.86,South,180,0.0,0.0,81,0.00,,,0.00,WeatherDisplay:10.37,2013-10-01 00:44:00,
2013-09-30 20:49:00,61.7,55.8,29.86,South,180,0.0,0.0,81,0.00,,,0.00,WeatherDisplay:10.37,2013-10-01 00:49:00,
2013-09-30 20:54:00,61.5,55.6,29.86,South,180,0.0,0.0,81,0.00,,,0.00,WeatherDisplay:10.37,2013-10-01 00:54:00,
2013-09-30 20:59:00,61.3,55.5,29.87,South,180,0.0,0.0,81,0.00,,,0.00,WeatherDisplay:10.37,2013-10-01 00:59:00,
2013-09-30 21:04:00,61.3,55.5,29.87,South,180,0.0,0.0,81,0.00,,,0.00,WeatherDisplay:10.37,2013-10-01 01:04:00,
2013-09-30 21:09:00,61.2,55.3,29.87,South,180,0.0,0.0,81,0.00,,,0.00,WeatherDisplay:10.37,2013-10-01 01:09:00,
2013-09-30 21:14:00,61.0,55.1,29.87,South,180,0.0,0.0,81,0.00,,,0.00,WeatherDisplay:10.37,2013-10-01 01:14:00,
2013-09-30 21:19:00,61.0,55.1,29.87,South,180,0.0,0.0,81,0.00,,,0.00,WeatherDisplay:10.37,2013-10-01 01:19:00,
2013-09-30 21:24:00,60.9,55.4,29.88,South,180,0.0,0.0,82,0.00,,,0.00,WeatherDisplay:10.37,2013-10-01 01:24:00,
2013-09-30 21:29:00,60.6,54.8,29.88,South,180,0.0,0.0,81,0.00,,,0.00,WeatherDisplay:10.37,2013-10-01 01:29:00,
2013-09-30 21:34:00,60.6,54.8,29.88,South,180,0.0,0.0,81,0.00,,,0.00,WeatherDisplay:10.37,2013-10-01 01:34:00,
2013-09-30 21:39:00,60.5,55.0,29.88,South,180,0.0,0.0,82,0.00,,,0.00,WeatherDisplay:10.37,2013-10-01 01:39:00,
2013-09-30 21:44:00,60.4,54.9,29.88,South,180,0.0,0.0,82,0.00,,,0.00,WeatherDisplay:10.37,2013-10-01 01:44:00,
2013-09-30 21:49:00,60.3,54.7,29.88,South,180,0.0,0.0,82,0.00,,,0.00,WeatherDisplay:10.37,2013-10-01 01:49:00,
2013-09-30 21:54:00,60.1,54.6,29.88,South,180,0.0,0.0,82,0.00,,,0.00,WeatherDisplay:10.37,2013-10-01 01:54:00,
2013-09-30 21:59:00,60.1,54.6,29.88,South,180,0.0,0.0,82,0.00,,,0.00,WeatherDisplay:10.37,2013-10-01 01:59:00,
2013-09-30 22:04:00,60.1,54.9,29.88,South,180,0.0,0.0,83,0.00,,,0.00,WeatherDisplay:10.37,2013-10-01 02:04:00,
2013-09-30 22:09:00,60.1,54.9,29.88,South,180,0.0,0.0,83,0.00,,,0.00,WeatherDisplay:10.37,2013-10-01 02:09:00,
2013-09-30 22:14:00,59.9,54.7,29.88,South,180,0.0,0.0,83,0.00,,,0.00,WeatherDisplay:10.37,2013-10-01 02:14:00,
2013-09-30 22:19:00,59.8,54.6,29.88,South,180,0.0,0.0,83,0.00,,,0.00,WeatherDisplay:10.37,2013-10-01 02:19:00,
2013-09-30 22:24:00,59.7,54.9,29.88,South,180,0.0,0.0,84,0.00,,,0.00,WeatherDisplay:10.37,2013-10-01 02:24:00,
2013-09-30 22:29:00,59.6,54.8,29.88,South,180,0.0,0.0,84,0.00,,,0.00,WeatherDisplay:10.37,2013-10-01 02:29:00,
2013-09-30 22:34:00,59.5,54.7,29.88,South,180,0.0,0.0,84,0.00,,,0.00,WeatherDisplay:10.37,2013-10-01 02:34:00,
2013-09-30 22:40:00,59.4,54.5,29.88,South,180,0.0,0.0,84,0.00,,,0.00,WeatherDisplay:10.37,2013-10-01 02:40:00,
2013-09-30 22:45:00,59.2,54.3,29.88,South,180,0.0,0.0,84,0.00,,,0.00,WeatherDisplay:10.37,2013-10-01 02:45:00,
2013-09-30 22:50:00,59.4,54.5,29.88,South,180,0.0,0.0,84,0.00,,,0.00,WeatherDisplay:10.37,2013-10-01 02:50:00,
2013-09-30 22:55:00,59.4,54.5,29.88,South,180,0.0,0.0,84,0.00,,,0.00,WeatherDisplay:10.37,2013-10-01 02:55:00,
2013-09-30 23:00:00,59.2,54.3,29.88,South,180,0.0,0.0,84,0.00,,,0.00,WeatherDisplay:10.37,2013-10-01 03:00:00,
2013-09-30 23:05:00,59.2,54.3,29.88,South,180,0.0,0.0,84,0.00,,,0.00,WeatherDisplay:10.37,2013-10-01 03:05:00,
2013-09-30 23:10:00,59.0,54.5,29.88,South,180,0.0,0.0,85,0.00,,,0.00,WeatherDisplay:10.37,2013-10-01 03:10:00,
2013-09-30 23:15:00,59.0,54.5,29.88,South,180,0.0,0.0,85,0.00,,,0.00,WeatherDisplay:10.37,2013-10-01 03:15:00,
2013-09-30 23:20:00,59.0,54.8,29.88,South,180,0.0,0.0,86,0.00,,,0.00,WeatherDisplay:10.37,2013-10-01 03:20:00,
2013-09-30 23:25:00,59.0,54.8,29.88,South,180,0.0,0.0,86,0.00,,,0.00,WeatherDisplay:10.37,2013-10-01 03:25:00,
2013-09-30 23:30:00,58.8,54.6,29.88,South,180,0.0,0.0,86,0.00,,,0.00,WeatherDisplay:10.37,2013-10-01 03:30:00,
2013-09-30 23:35:00,58.8,54.6,29.88,South,180,0.0,0.0,86,0.00,,,0.00,WeatherDisplay:10.37,2013-10-01 03:35:00,
2013-09-30 23:40:00,58.8,54.6,29.88,South,180,0.0,0.0,86,0.00,,,0.00,WeatherDisplay:10.37,2013-10-01 03:40:00,
2013-09-30 23:45:00,58.6,54.5,29.88,South,180,0.0,0.0,86,0.00,,,0.00,WeatherDisplay:10.37,2013-10-01 03:45:00,
2013-09-30 23:50:00,58.6,54.5,29.88,South,180,0.0,0.0,86,0.00,,,0.00,WeatherDisplay:10.37,2013-10-01 03:50:00,
2013-09-30 23:55:00,58.6,54.5,29.88,South,180,0.0,0.0,86,0.00,,,0.00,WeatherDisplay:10.37,2013-10-01 03:55:00,